Temp
2 2 2 3 3 3 3 3 3 4 4 3 3 3 3 4 3 3 3 2 3 3 3 3 3 3 2 2 2 2 1 1 0 3 3 3 3 3 4 3 2 3 2 2
2 2 2 2 2 3 3 2 3 3 3 3 3 3 3 3 2 3 2 2 3 3 2 2 2 2 1 2 1 1 1 1 1 3 4 3 3 3 3 3 3 1 -1 2
2 2 2 2 2 2 2 3 2 3 3 3 2 2 2 3 3 3 3 3 2 2 2 2 1 2 1 1 1 0 0 -0 0 1 1 1 1 2 2 2 2 2 2 2
2 2 2 2 2 2 2 2 2 2 2 3 2 2 2 2 2 2 2 1 1 1 1 1 1 1 1 1 1 0 -0 -1 -0 -0 -0 -0 -1 0 1 1 2 2 2 2
2 2 1 1 1 2 1 1 1 2 2 2 1 2 2 2 1 1 1 1 1 1 1 1 1 0 -0 -0 0 0 -1 -1 -1 -1 -1 -1 -1 0 1 1 1 2 2 2
1 1 1 1 1 1 1 1 1 1 1 1 1 1 1 1 1 0 1 0 -0 -0 -0 -0 -0 0 0 0 -0 -0 -1 -1 -1 -1 -1 -2 -2 2 2 1 1 1 2 1
0 1 1 1 1 1 0 1 0 1 0 0 1 0 0 0 0 -0 -0 -1 -1 -1 -1 -1 -0 0 0 1 2 0 -1 -0 -1 -2 -2 -2 1 2 2 1 1 1 1 0
-0 0 0 0 0 0 0 0 -0 -0 0 0 -0 -0 -0 -1 -1 -1 -1 -1 -1 -1 -1 -1 -1 -1 -0 1 -0 0 -0 -1 -1 -2 -2 -1 -2 1 1 1 -0 -0 -1 -2
-1 -1 -1 -0 -0 -0 -0 -0 -0 -1 -1 0 -0 -1 -1 -1 -1 -1 -1 -1 -0 -0 -1 -2 -2 -2 -2 -1 -1 -0 -0 -1 -1 -2 -2 -2 -1 -0 -1 -1 -1 -1 -2 -3
-1 -1 -1 -1 -1 -1 -1 -1 -1 -1 -1 0 -0 -0 -1 -1 -1 -2 -2 -2 -1 -1 -2 -2 -3 -3 -2 -2 -1 -2 -2 -2 -2 -2 -3 -2 -1 -1 -2 -2 -2 -3 -3 -3
-1 -1 -2 -2 -2 -1 -1 -1 -1 -1 -1 -0 -1 -0 -1 -1 -1 -1 -1 -2 -2 -2 -2 -2 -2 -2 -2 -3 -2 -2 -2 -3 -3 -3 -3 -2 -1 -1 -2 -3 -3 -3 -3 -3
-2 -2 -2 -2 -2 -2 -2 -1 -1 -2 -2 -2 -1 -1 0 -1 -1 -2 -2 -2 -3 -2 -2 -3 -3 -3 -3 -3 -4 -2 -3 -2 -3 -3 -2 -2 -2 -2 -3 -3 -3 -3 -4 -4
-2 -2 -2 -2 -2 -2 -2 -2 -2 -2 -2 -2 -2 -1 -1 -1 -1 -2 -2 -2 -2 -2 -3 -3 -3 -3 -4 -4 -4 -4 -4 -3 -4 -4 -2 -2 -3 -2 -3 -4 -4 -4 -4 -5
-2 -2 -3 -2 -2 -2 -3 -2 -2 -3 -3 -3 -2 -1 -1 -2 -2 -2 -2 -2 -2 -3 -3 -3 -3 -4 -4 -3 -3 -4 -4 -4 -4 -4 -2 -3 -3 -3 -4 -4 -5 -4 -5 -5
-3 -3 -3 -3 -3 -3 -3 -3 -3 -3 -3 -3 -3 -2 -2 -2 -2 -3 -2 -3 -3 -3 -3 -3 -3 -4 -4 -3 -4 -5 -4 -4 -4 -4 -3 -4 -3 -3 -5 -5 -4 -5 -6 -7
-3 -3 -3 -4 -4 -4 -4 -4 -3 -3 -3 -4 -3 -3 -3 -2 -2 -2 -2 -2 -3 -3 -4 -4 -4 -4 -4 -4 -4 -4 -3 -4 -5 -4 -4 -4 -4 -4 -5 -5 -5 -7 -8 -7
-3 -3 -3 -4 -3 -3 -3 -3 -3 -3 -3 -3 -3 -3 -3 -3 -3 -3 -3 -3 -3 -3 -4 -4 -4 -4 -4 -4 -4 -0 -3 -4 -4 -4 -5 -4 -5 -5 -5 -7 -7 -8 -8 -7
-3 -3 -3 -4 -4 -4 -3 -3 -3 -4 -3 -4 -4 -4 -4 -4 -4 -4 -4 -3 -3 -3 -3 -4 -4 -4 -4 -5 -3 -3 -3 -4 -5 -5 -5 -5 -5 -5 -7 -8 -9 -8 -7 -7
-3 -3 -3 -5 -4 -4 -4 -4 -4 -4 -4 -4 -4 -4 -4 -4 -4 -5 -5 -5 -4 -4 -4 -5 -5 -4 -5 -4 -4 -5 -5 -5 -6 -5 -6 -6 -7 -8 -7 -8 -7 -7 -8 -8
-3 -4 -5 -5 -6 -4 -5 -5 -4 -4 -4 -5 -5 -4 -4 -5 -5 -5 -6 -6 -6 -6 -4 -5 -6 -5 -4 -5 -5 -5 -6 -6 -6 -6 -7 -7 -8 -8 -8 -8 -8 -8 -9 -9
-4 -5 -6 -6 -5 -5 -5 -5 -5 -6 -6 -6 -5 -5 -5 -5 -6 -7 -7 -7 -7 -7 -6 -7 -7 -6 -5 -6 -6 -6 -6 -6 -7 -8 -8 -9 -9 -9 -9 -9 -9 -9 -9 -10
-7 -7 -7 -7 -7 -7 -6 -7 -7 -7 -7 -7 -6 -6 -6 -7 -7 -8 -8 -8 -8 -7 -7 -7 -7 -7 -6 -6 -7 -7 -8 -8 -8 -9 -9 -9 -9 -10 -10 -10 -10 -10 -10 -11
-8 -8 -8 -8 -8 -8 -8 -8 -8 -8 -7 -7 -7 -7 -8 -8 -8 -9 -9 -8 -8 -8 -8 -8 -7 -7 -7 -8 -9 -9 -9 -9 -9 -8 -8 -9 -9 -9 -10 -10 -10 -11 -11 -12
-9 -9 -9 -8 -8 -9 -9 -9 -8 -8 -8 -8 -8 -9 -9 -9 -9 -9 -9 -9 -9 -8 -8 -7 -7 -7 -8 -8 -8 -8 -9 -9 -9 -9 -9 -9 -10 -10 -10 -10 -10 -11 -12 -12
-10 -10 -9 -9 -9 -9 -9 -9 -9 -9 -9 -9 -9 -9 -10 -10 -10 -10 -10 -10 -9 -8 -8 -8 -8 -9 -9 -9 -9 -9 -9 -9 -9 -10 -10 -10 -10 -10 -10 -10 -11 -12 -12 -12
-11 -10 -9 -9 -9 -9 -9 -9 -10 -10 -10 -10 -10 -11 -11 -11 -10 -10 -10 -10 -9 -8 -8 -9 -9 -9 -9 -10 -10 -10 -10 -10 -10 -10 -10 -10 -10 -10 -11 -11 -11 -12 -12 -13
-11 -10 -10 -10 -10 -9 -10 -10 -11 -11 -11 -11 -11 -12 -12 -11 -11 -11 -11 -10 -10 -10 -10 -10 -10 -11 -11 -11 -12 -11 -11 -11 -11 -11 -11 -11 -11 -11 -11 -12 -12 -12 -13 -13
Height
3148 3149 3150 3151 3152 3152 3153 3154 3156 3154 3155 3158 3158 3160 3160 3159 3159 3159 3160 3161 3161 3162 3162 3162 3162 3162 3160 3158 3156 3157 3154 3152 3148 3143 3142 3144 3143 3143 3142 3139 3136 3134 3127 3114
3146 3147 3149 3150 3152 3153 3154 3154 3154 3155 3155 3157 3157 3157 3158 3159 3160 3159 3160 3160 3160 3160 3161 3162 3161 3161 3159 3158 3157 3154 3153 3151 3147 3144 3144 3143 3142 3140 3138 3136 3131 3127 3125 3109
3143 3145 3147 3149 3151 3152 3154 3155 3155 3155 3155 3157 3158 3158 3159 3159 3159 3159 3159 3159 3159 3161 3161 3161 3160 3160 3158 3156 3155 3154 3152 3151 3152 3150 3145 3143 3138 3134 3129 3128 3123 3116 3115 3100
3140 3143 3145 3147 3149 3150 3153 3153 3154 3155 3156 3156 3157 3158 3160 3160 3160 3158 3158 3159 3159 3159 3159 3158 3157 3158 3157 3156 3154 3152 3149 3146 3147 3143 3140 3138 3134 3127 3121 3118 3115 3112 3100 3102
3136 3140 3143 3145 3147 3149 3151 3151 3152 3153 3153 3155 3156 3156 3158 3159 3158 3159 3160 3159 3159 3158 3158 3158 3156 3155 3154 3153 3152 3150 3147 3139 3138 3134 3133 3132 3126 3121 3113 3108 3107 3103 3098 3093
3133 3136 3139 3142 3144 3146 3147 3149 3150 3151 3152 3152 3154 3156 3157 3158 3156 3156 3156 3156 3156 3155 3153 3152 3151 3149 3148 3146 3144 3142 3143 3139 3133 3127 3128 3124 3118 3110 3108 3104 3104 3100 3092 3087
3129 3133 3136 3139 3141 3143 3145 3147 3148 3148 3149 3151 3153 3154 3154 3155 3155 3154 3153 3154 3153 3152 3149 3147 3145 3143 3141 3139 3137 3136 3135 3134 3131 3123 3123 3117 3110 3107 3103 3097 3095 3092 3086 3081
3124 3128 3131 3134 3137 3139 3141 3143 3145 3145 3145 3147 3149 3150 3150 3150 3151 3150 3150 3149 3148 3145 3144 3141 3137 3136 3133 3133 3132 3132 3131 3128 3126 3123 3116 3105 3103 3099 3098 3093 3086 3086 3080 3074
3119 3123 3126 3129 3132 3135 3137 3138 3140 3140 3142 3143 3145 3146 3147 3147 3146 3145 3144 3144 3142 3142 3139 3137 3135 3135 3133 3131 3130 3129 3129 3127 3126 3122 3113 3099 3095 3094 3090 3086 3076 3076 3073 3068
3112 3116 3120 3123 3126 3129 3131 3134 3136 3136 3135 3138 3138 3140 3142 3143 3142 3141 3141 3138 3138 3137 3135 3134 3132 3129 3131 3128 3125 3124 3123 3121 3119 3113 3107 3092 3088 3088 3084 3081 3075 3071 3064 3058
3107 3111 3114 3117 3119 3122 3125 3127 3130 3130 3129 3132 3132 3134 3137 3137 3136 3137 3137 3136 3133 3131 3130 3128 3126 3122 3124 3121 3121 3121 3120 3118 3112 3104 3101 3088 3087 3085 3084 3078 3068 3062 3055 3050
3100 3105 3108 3111 3114 3116 3118 3121 3123 3123 3123 3124 3125 3127 3130 3130 3132 3130 3130 3129 3129 3126 3124 3122 3119 3117 3113 3112 3107 3112 3110 3111 3104 3101 3092 3083 3082 3080 3073 3068 3060 3052 3047 3041
3093 3097 3101 3105 3108 3110 3113 3114 3116 3117 3115 3114 3115 3121 3124 3121 3122 3123 3121 3122 3123 3122 3121 3117 3111 3107 3107 3102 3098 3097 3096 3099 3092 3087 3079 3075 3071 3067 3065 3058 3050 3044 3038 3031
3087 3090 3094 3098 3101 3103 3105 3107 3110 3109 3108 3103 3103 3111 3112 3114 3112 3112 3112 3113 3114 3113 3112 3108 3102 3099 3096 3089 3089 3088 3091 3087 3079 3069 3065 3061 3058 3058 3055 3047 3041 3033 3029 3023
3077 3081 3085 3089 3092 3095 3096 3097 3099 3101 3104 3096 3093 3095 3103 3104 3103 3104 3103 3104 3105 3105 3102 3097 3092 3089 3091 3080 3075 3072 3079 3073 3071 3058 3057 3056 3047 3046 3043 3037 3028 3025 3020 3013
3068 3072 3076 3080 3083 3085 3086 3086 3088 3093 3093 3091 3083 3079 3081 3091 3093 3094 3094 3095 3094 3093 3089 3084 3080 3080 3082 3071 3058 3065 3068 3066 3063 3056 3053 3047 3042 3037 3032 3028 3022 3018 3014 3006
3061 3065 3069 3074 3076 3076 3077 3076 3076 3084 3086 3083 3078 3073 3069 3074 3078 3081 3083 3085 3083 3080 3077 3071 3071 3072 3070 3060 3052 3054 3057 3055 3051 3048 3042 3032 3031 3026 3024 3018 3014 3013 3008 2998
3053 3057 3061 3066 3069 3068 3067 3067 3069 3072 3074 3074 3071 3065 3063 3066 3068 3072 3072 3070 3069 3068 3063 3060 3061 3063 3056 3048 3046 3047 3047 3045 3045 3035 3031 3028 3021 3019 3016 3008 3008 3004 2995 2989
3045 3048 3051 3056 3058 3058 3058 3063 3063 3063 3068 3062 3059 3058 3059 3059 3059 3060 3060 3059 3056 3056 3053 3053 3056 3048 3041 3040 3041 3040 3040 3037 3028 3023 3020 3016 3011 3010 3008 3004 3000 2993 2986 2980
3036 3040 3044 3045 3047 3050 3054 3055 3055 3052 3050 3050 3050 3051 3054 3056 3053 3053 3055 3051 3050 3046 3044 3044 3037 3030 3033 3034 3033 3031 3026 3021 3020 3015 3013 3008 3006 3004 3000 2997 2991 2984 2977 2972
3029 3031 3034 3037 3040 3044 3045 3045 3044 3043 3041 3039 3041 3045 3047 3046 3047 3047 3046 3042 3041 3038 3037 3034 3026 3021 3024 3026 3024 3019 3018 3015 3012 3008 3005 3003 3000 2996 2992 2987 2982 2975 2969 2964
3025 3026 3029 3032 3034 3035 3039 3035 3035 3034 3036 3035 3036 3038 3039 3039 3041 3040 3040 3039 3036 3031 3027 3026 3017 3019 3018 3017 3016 3015 3010 3007 3006 3003 2999 2996 2991 2987 2981 2975 2970 2965 2960 2955
3022 3023 3027 3027 3028 3028 3028 3027 3027 3028 3028 3030 3032 3034 3035 3034 3037 3036 3036 3033 3030 3027 3022 3017 3014 3016 3013 3010 3006 3003 3002 3001 2998 2995 2991 2986 2981 2976 2971 2966 2960 2954 2950 2947
3019 3022 3023 3022 3020 3020 3022 3024 3024 3023 3024 3026 3027 3029 3031 3031 3033 3032 3030 3026 3024 3019 3016 3013 3013 3010 3006 3002 2999 2997 2995 2992 2988 2984 2981 2977 2971 2966 2962 2956 2950 2945 2942 2938
3017 3019 3018 3015 3014 3017 3020 3020 3021 3020 3021 3024 3025 3025 3026 3026 3028 3028 3025 3020 3014 3010 3008 3010 3007 3002 2999 2996 2993 2990 2987 2983 2980 2976 2971 2967 2962 2957 2952 2947 2941 2937 2934 2930
3013 3012 3011 3011 3012 3014 3016 3018 3019 3018 3018 3020 3022 3021 3020 3020 3021 3018 3012 3010 3003 3003 3004 3001 2997 2996 2992 2988 2984 2980 2977 2973 2970 2966 2962 2957 2953 2948 2942 2937 2933 2929 2926 2925
3005 3005 3007 3007 3009 3011 3013 3015 3016 3015 3016 3017 3018 3018 3017 3015 3010 3005 3002 2997 2997 2995 2992 2990 2989 2986 2982 2977 2973 2970 2966 2963 2959 2955 2952 2947 2943 2937 2932 2928 2924 2922 2921 2919
Wind_Speed
8 6 6 4 1 3 4 8 1 1 4 3 4 1 2 2 1 1 1 2 3 2 5 4 3 3 4 12 11 8 9 8 12 19 8 7 7 9 13 14 13 23 26 31
11 9 9 7 5 2 1 4 1 2 4 3 3 3 2 2 2 1 2 2 2 4 3 3 3 5 12 12 7 8 11 4 10 9 2 3 17 25 26 28 28 19 11 21
14 12 10 9 8 7 4 2 3 1 2 4 2 4 2 2 1 2 2 4 4 4 3 4 5 8 8 17 15 17 13 9 8 15 21 28 31 31 34 34 35 34 32 48
15 15 12 10 9 8 7 6 5 4 0 3 7 4 3 2 5 5 3 3 2 3 4 9 5 6 13 12 16 17 13 19 17 25 26 26 31 32 34 37 39 36 45 39
19 19 16 13 11 10 10 8 6 7 7 5 2 4 3 4 5 2 3 4 6 5 7 10 14 15 13 15 14 15 18 28 30 37 37 26 29 35 45 39 30 28 31 38
22 20 19 17 14 12 13 12 12 10 8 9 7 5 2 3 6 8 8 7 7 11 17 18 19 23 25 26 26 27 26 31 31 28 30 31 32 23 22 22 28 29 32 40
23 22 21 19 17 16 16 13 14 14 13 12 8 6 7 7 8 9 8 10 12 17 21 24 27 28 27 27 21 20 27 30 32 27 30 7 14 20 31 26 22 27 38 34
25 24 23 21 20 19 19 16 16 18 19 16 13 12 13 12 13 14 13 11 17 22 23 27 25 27 16 15 7 8 9 20 23 16 24 35 27 23 17 30 31 30 20 17
27 25 25 23 21 21 20 20 18 20 20 20 18 14 12 16 18 18 18 20 19 16 23 22 13 8 13 6 11 14 16 18 20 27 25 15 21 33 19 23 31 21 22 50
31 28 27 25 23 21 21 22 20 21 24 22 22 19 16 17 18 19 17 19 21 21 21 22 20 16 14 13 13 16 20 23 29 34 26 26 32 28 21 17 21 48 48 40
33 31 28 28 26 24 24 24 23 25 28 26 25 24 21 21 22 22 22 21 21 22 21 20 24 18 15 18 19 21 23 22 25 24 18 20 13 22 30 50 47 49 59 51
34 32 31 29 29 27 27 25 26 29 31 31 31 28 24 21 20 24 23 26 22 17 19 23 20 25 30 31 37 31 22 21 29 31 31 48 49 49 50 48 50 49 46 45
36 34 31 31 30 29 30 29 27 29 33 37 36 31 26 33 33 31 35 32 32 32 32 33 32 33 35 37 30 34 25 33 38 41 49 46 47 41 41 45 46 45 30 42
41 36 35 36 38 35 36 35 33 33 35 41 45 38 37 34 37 39 31 35 29 35 33 34 42 45 37 42 48 37 39 44 46 51 47 39 41 45 45 42 45 41 41 47
45 44 43 41 41 39 38 37 35 36 37 38 40 45 43 37 32 27 25 26 26 30 39 40 45 45 45 50 54 46 42 44 40 46 38 42 50 40 38 42 36 45 35 37
33 32 38 34 34 39 43 47 46 43 43 46 54 48 40 41 33 39 36 38 37 38 42 48 47 49 39 46 52 48 41 39 35 46 41 36 42 44 44 40 47 24 29 39
34 34 32 37 36 37 37 42 47 37 33 39 42 43 41 35 29 21 24 29 34 35 38 43 47 47 45 49 55 48 49 47 43 32 38 36 35 37 38 25 27 28 36 47
29 31 34 36 35 42 44 43 44 43 38 38 39 44 44 35 30 28 29 29 29 40 43 46 44 45 46 52 53 54 43 33 30 38 41 43 42 49 30 29 32 41 50 52
28 29 30 32 39 41 41 40 39 35 37 36 38 45 39 32 28 23 22 28 39 41 45 44 45 51 49 53 49 38 32 44 44 45 42 30 31 28 32 37 43 51 49 48
28 26 24 27 33 37 39 42 46 44 43 39 42 40 31 31 36 31 24 21 23 24 39 33 39 49 45 44 44 33 34 37 35 36 34 31 27 34 40 46 44 45 47 47
26 27 29 32 34 34 34 26 20 17 17 23 35 38 36 35 30 29 23 11 10 14 23 20 25 31 28 13 17 27 28 31 30 25 28 25 34 40 41 43 43 43 44 42
19 20 22 23 24 18 14 12 13 12 10 12 13 16 18 21 20 11 8 11 8 10 16 15 21 23 19 22 25 28 20 23 26 29 38 42 43 44 46 48 47 45 42 38
13 14 14 10 12 15 10 12 9 9 13 16 16 15 13 12 11 8 8 8 13 16 13 17 22 13 20 20 12 16 19 27 36 43 49 50 47 44 44 45 44 41 39 36
13 10 10 9 7 9 10 14 13 17 17 15 14 14 10 13 13 11 9 12 13 12 19 25 25 20 19 22 27 30 35 44 49 50 46 44 44 41 44 45 43 38 34 35
16 8 7 14 16 15 11 14 16 16 15 16 17 17 18 18 11 10 8 7 9 16 21 20 19 23 26 31 36 41 46 49 47 44 44 40 39 44 44 41 36 36 32 32
20 14 13 16 14 15 16 13 11 13 16 16 17 15 13 15 11 15 14 15 25 28 27 27 31 34 39 45 47 47 46 45 43 43 42 42 44 43 40 36 35 29 25 22
16 21 26 25 17 8 6 8 10 13 16 20 21 12 14 12 14 21 22 28 30 32 33 36 40 41 42 45 46 45 44 49 48 45 42 42 40 41 37 34 26 21 18 16
Wind_Direction
220 231 236 230 136 69 94 111 257 255 167 122 100 192 184 191 321 323 348 64 54 49 355 348 330 320 264 320 341 356 332 312 296 310 307 278 313 308 305 283 279 278 290 283
225 231 238 237 235 233 114 86 130 153 150 327 234 226 222 165 72 241 55 37 350 347 350 344 351 323 309 331 352 311 319 289 320 353 182 287 317 306 302 301 298 262 258 274
228 232 238 241 237 239 253 246 244 276 199 94 110 132 129 295 255 300 300 301 338 340 349 320 326 311 302 327 332 321 304 298 285 279 289 303 307 303 299 300 295 292 278 289
234 237 236 236 238 239 242 243 242 244 208 206 180 198 168 229 333 295 308 339 338 324 299 299 321 314 304 303 298 302 304 293 295 288 291 297 298 297 295 291 293 292 294 295
230 237 240 237 238 241 240 212 215 235 241 230 209 246 197 200 271 181 284 322 302 297 303 314 307 299 295 295 293 287 290 282 291 289 299 303 299 290 295 291 293 288 293 294
232 236 240 242 244 245 246 243 251 249 246 241 246 288 274 246 229 288 288 275 293 281 282 280 284 286 291 293 290 288 278 282 285 285 297 298 300 314 306 296 300 293 295 297
233 237 241 245 248 248 250 252 253 257 249 255 257 258 254 259 269 269 264 292 297 290 283 290 291 296 299 298 298 282 272 278 281 284 296 256 291 282 300 300 290 286 299 303
233 238 240 242 248 251 252 252 253 259 261 260 257 256 257 259 258 269 283 284 270 281 292 300 308 316 322 325 343 332 291 269 275 279 279 287 294 311 306 305 295 298 296 286
232 237 241 241 244 251 252 251 249 255 263 268 265 255 265 276 282 277 280 283 283 292 290 293 296 294 296 290 297 288 287 279 281 287 288 295 291 293 318 291 283 281 295 305
233 233 240 243 243 245 251 256 258 257 264 267 271 266 266 266 268 274 271 282 292 292 286 285 281 271 279 272 273 285 291 294 291 286 274 288 303 314 290 277 288 316 315 308
240 237 236 241 243 244 248 253 260 262 267 268 269 269 266 270 270 267 273 278 279 281 276 278 285 278 276 262 277 286 288 294 282 280 272 282 304 308 310 307 302 303 305 308
237 240 240 237 244 248 249 254 261 268 268 266 270 265 270 265 266 263 260 262 262 268 274 281 277 277 278 275 283 294 267 277 278 271 275 290 292 296 292 292 297 300 310 312
234 233 237 240 245 250 254 258 264 270 274 275 267 269 266 269 267 265 264 265 271 269 279 280 276 276 279 280 284 291 268 294 283 293 297 302 303 303 310 309 298 306 306 307
241 232 246 249 251 245 250 253 258 261 271 275 274 267 267 266 266 271 260 275 263 275 274 271 272 272 278 281 289 277 280 289 291 294 306 310 304 309 307 304 307 297 296 303
238 246 254 249 250 250 251 249 251 262 264 267 271 273 272 272 278 260 277 273 267 272 276 269 271 272 276 285 288 281 286 290 290 297 304 297 305 314 310 303 298 301 303 311
237 249 244 238 249 251 251 259 262 268 268 262 275 276 278 280 276 273 271 282 280 278 272 274 269 275 278 281 278 288 290 286 289 289 304 306 302 291 291 292 304 313 304 313
247 246 248 244 251 263 243 254 263 266 266 270 269 286 285 288 280 265 262 273 281 272 265 266 269 276 269 271 277 298 290 296 302 307 300 282 290 299 301 307 307 306 308 324
247 243 242 244 250 254 253 252 253 265 264 271 268 273 277 275 275 276 279 277 262 247 253 260 264 268 272 274 284 290 299 307 300 281 284 291 289 291 294 301 311 317 321 323
248 247 245 234 239 245 256 259 261 258 267 263 262 264 267 270 277 288 276 254 246 248 250 260 264 265 260 274 286 289 281 289 282 282 288 290 292 297 306 310 314 319 319 319
248 245 230 232 242 245 245 260 256 257 257 258 259 260 250 268 282 282 276 269 252 257 273 275 262 267 280 283 287 290 273 271 278 280 291 296 304 314 316 317 316 316 316 315
243 240 238 240 243 247 250 253 243 235 234 243 250 253 263 269 268 273 277 266 252 254 277 256 261 268 286 283 256 255 266 276 291 294 286 302 311 315 314 313 313 316 317 316
233 234 236 237 239 238 234 227 224 228 235 243 247 248 245 244 256 262 268 267 254 255 268 259 268 282 281 273 275 281 272 274 280 304 311 312 314 315 314 315 315 314 313 313
210 209 209 215 216 218 220 216 208 205 221 239 247 245 229 239 247 241 248 243 255 269 260 261 271 287 290 273 256 247 275 300 305 308 311 312 312 312 315 316 314 311 312 310
217 211 217 215 215 218 222 212 225 226 231 235 235 230 251 267 274 258 253 258 256 253 258 262 282 279 273 265 262 276 292 305 308 309 309 309 311 313 315 315 313 310 309 301
216 211 223 227 225 232 241 234 233 225 233 243 250 256 259 259 260 258 249 254 243 258 263 268 269 283 283 283 289 296 299 298 302 305 306 309 312 313 312 311 310 305 302 297
225 223 227 242 246 249 240 238 233 225 235 244 254 269 272 268 252 249 240 242 255 269 274 277 282 282 289 291 291 293 296 300 302 303 303 306 311 312 310 305 308 305 304 296
226 238 242 248 253 245 228 234 242 253 259 267 275 263 260 263 246 245 247 253 268 276 281 283 291 293 292 294 296 298 299 300 301 301 301 307 310 311 308 306 302 303 293 286